This is the latest recevied weather packets stored in our database for station/object N9CQS-15. If no packets are shown the sender has not sent any weather packets the latest 10 day(s).
| Time | Temp. | Humidity | Pressure | Rain* | Wind** | Luminosity | Snow |
|---|---|---|---|---|---|---|---|
| 1778134142 | 5.56° C | 67% | 1017.8 hPa | 0 mm | - | - | - |
| 1778133542 | 5.56° C | 68% | 1017.8 hPa | 0 mm | - | - | - |
| 1778132942 | 6.11° C | 65% | 1017.8 hPa | 0 mm | - | - | - |
| 1778132342 | 6.11° C | 66% | 1017.8 hPa | 0 mm | - | - | - |
| 1778131742 | 6.67° C | 65% | 1017.8 hPa | 0 mm | - | - | - |
| 1778131142 | 7.22° C | 60% | 1017.9 hPa | 0 mm | - | - | - |
| 1778130542 | 7.22° C | 59% | 1017.8 hPa | 0 mm | - | - | - |
| 1778129941 | 7.78° C | 59% | 1017.7 hPa | 0.51 mm | - | - | - |
| 1778129341 | 7.78° C | 59% | 1017.7 hPa | 0.51 mm | - | - | - |
| 1778128741 | 7.78° C | 59% | 1017.8 hPa | 0.51 mm | - | - | - |
| 1778128142 | 8.33° C | 59% | 1017.8 hPa | 0.51 mm | - | - | - |
| 1778127542 | 8.33° C | 59% | 1017.9 hPa | 0.51 mm | - | - | - |
| 1778126942 | 8.33° C | 58% | 1017.9 hPa | 0.51 mm | - | - | - |
| 1778126341 | 8.89° C | 57% | 1017.8 hPa | 0.76 mm | - | - | - |
| 1778125742 | 8.89° C | 56% | 1017.8 hPa | 0.76 mm | - | - | - |
| 1778125141 | 8.89° C | 56% | 1017.7 hPa | 0.76 mm | - | - | - |
| 1778124542 | 9.44° C | 55% | 1017.7 hPa | 0.76 mm | - | - | - |
| 1778123941 | 9.44° C | 54% | 1017.6 hPa | 0.76 mm | - | - | - |
| 1778123342 | 9.44° C | 54% | 1017.4 hPa | 0.76 mm | - | - | - |
| 1778122742 | 10° C | 53% | 1017.4 hPa | 1.27 mm | - | - | - |
| 1778122142 | 10° C | 54% | 1017.4 hPa | 1.27 mm | - | - | - |
| 1778121542 | 9.44° C | 55% | 1017.3 hPa | 1.27 mm | - | - | - |
| 1778120941 | 10° C | 57% | 1016.9 hPa | 1.27 mm | - | - | - |
| 1778120342 | 10° C | 56% | 1016.7 hPa | 1.27 mm | - | - | - |
| 1778119741 | 10° C | 54% | 1016.6 hPa | 1.27 mm | - | - | - |
* Rain latest 24 hours (hover to see other rain measurements)
** Current wind speed in m/s (hover to see current wind gust speed)